Theta_e
301 302 301 300 301 300 300 301 302 301 301 302 303 304 304 304 303 305 306 304 304 305
300 300 300 300 300 300 300 299 300 300 300 300 300 302 302 300 300 302 301 301 300 299
299 299 299 299 298 297 297 297 298 298 299 298 298 298 299 300 298 299 301 300 296 295
297 296 296 295 294 294 294 294 294 294 295 296 297 297 298 298 298 298 297 298 296 294
294 293 293 292 292 292 292 293 293 293 294 294 295 294 295 295 295 294 294 295 295 294
293 292 292 292 292 291 291 291 292 292 292 292 293 293 293 294 293 293 294 294 293 293
292 292 292 292 291 291 290 290 290 291 292 293 293 293 292 292 292 292 292 293 293 292
293 292 291 291 290 289 289 289 290 290 291 292 292 292 291 291 291 291 290 292 292 292
292 291 290 290 289 288 288 288 289 289 290 291 291 291 291 290 290 290 289 290 291 291
291 290 290 289 288 287 287 288 288 288 290 290 291 291 290 289 290 290 289 289 290 289
291 289 289 288 287 287 287 287 288 287 288 290 290 290 289 288 289 289 288 288 288 289
288 286 287 287 287 287 286 286 287 287 287 287 289 289 289 288 288 287 287 287 287 288
287 286 286 287 286 287 286 286 286 286 287 286 287 288 289 288 288 286 286 287 287 286
287 286 286 285 285 286 285 285 285 285 286 286 287 288 288 288 288 287 286 285 285 287
Wind_Speed
5 4 4 6 6 5 6 6 8 8 8 9 9 9 7 5 6 8 7 10 8 7
5 5 5 7 7 6 7 7 9 9 9 9 10 9 7 4 4 5 6 7 7 6
3 4 4 4 6 7 7 8 9 9 9 8 8 9 9 7 6 4 5 4 6 7
3 4 4 5 5 5 6 6 7 8 8 8 8 8 7 7 8 8 8 8 8 9
4 3 4 3 3 5 6 6 7 7 7 7 7 8 8 7 7 7 8 8 9 10
5 5 4 4 4 5 5 6 6 6 6 7 7 8 7 6 6 6 7 8 9 10
7 6 5 4 3 4 5 5 5 6 6 6 6 6 6 6 6 6 7 7 8 10
8 6 5 5 4 3 3 3 4 5 4 5 5 6 7 5 5 5 5 5 6 7
9 8 7 6 5 3 3 3 2 2 3 3 3 7 7 7 5 5 6 6 6 6
10 9 8 6 5 5 4 3 3 3 2 2 3 6 7 7 5 5 5 6 6 6
11 9 8 7 6 5 5 5 4 3 3 3 1 4 6 5 5 4 5 5 6 6
10 7 7 8 7 5 5 5 4 4 4 4 3 6 1 3 5 5 5 5 6 8
11 9 10 9 7 6 5 4 3 5 5 3 5 2 3 4 4 6 5 6 5 6
10 8 7 7 5 6 5 4 4 4 4 5 4 3 5 7 5 4 5 6 6 4
Wind_Direction
11 2 356 353 350 351 347 347 351 355 358 360 359 354 352 358 353 338 345 347 345 330
2 356 353 348 343 345 343 338 348 349 354 355 351 352 355 358 1 0 6 5 14 13
328 330 335 335 338 339 337 340 339 342 346 348 346 350 345 340 345 5 27 16 33 39
267 293 307 315 322 327 328 339 341 342 342 345 348 350 349 351 357 5 12 13 13 25
231 254 264 285 319 330 336 341 346 346 347 348 353 356 357 0 11 14 19 22 21 22
217 232 246 271 303 321 329 334 342 345 350 348 354 2 5 6 11 21 25 24 23 20
209 217 232 247 278 308 326 329 338 347 352 356 356 17 8 9 18 31 34 31 31 27
204 205 216 225 237 264 289 311 324 330 352 3 20 22 7 9 16 20 27 38 31 38
207 204 207 210 223 245 265 279 290 320 344 356 11 19 23 357 9 14 14 11 8 9
205 208 209 205 212 221 209 228 233 233 272 339 19 24 23 14 16 12 8 0 355 357
199 205 203 202 214 219 219 206 217 229 251 273 358 330 21 357 3 355 347 343 341 337
180 176 198 211 209 208 217 217 220 227 235 251 255 348 64 339 341 333 335 338 337 337
176 177 194 202 198 200 213 224 222 234 230 244 271 316 339 313 320 329 335 327 332 346
174 179 185 179 188 195 197 207 214 231 222 237 256 271 320 316 308 320 318 319 328 336